Location: Gallinara
(44.0333°N, 8.2333°E)
Time: 15:41:37
(UTC+00:00)

Cosmos 1544 - Pass Details

Date: 25 September 2020
Orbit: 471 x 491 km, 82.5° (Epoch: 30 October)

Event Time Altitude Azimuth Distance (km) Brightness Sun altitude
Rises 03:43:53 0° 358° (N) 2,533 6.9 -17.5°
Reaches altitude 10° 03:46:04 10° 5° (N) 1,648 6.0 -17.2°
Maximum altitude 03:49:30 42° 78° (ENE) 682 4.3 -16.6°
Drops below altitude 10° 03:52:54 10° 151° (SSE) 1,631 5.9 -16.0°
Sets 03:55:03 0° 158° (SSE) 2,502 6.8 -15.6°
